World > North America > United States > Missouri > Turney

Turney, MO Hourly Weather Conditions

Feedback E-mail the Weather

Quick WX

Turney, MO Weather Maps

°F °C°F °C
Turney Weather Map
UTC Time: 12/7/2022, 00:25
Your Time:

Turney, MO Regional Weather

Expires:202212070100;;422814
ASUS43 KEAX 070015
RWREAX

WEATHER ROUNDUP FOR EASTERN KANSAS AND NORTHWEST MISSOURI
NATIONAL WEATHER SERVICE KANSAS CITY/PLEASANT HILL MO
600 PM CST TUE DEC 06 2022


MOZ001>008-011>017-020>025-030>033-038>040-044>046-053-054-070100-
...NORTHERN AND CENTRAL MISSOURI...
  
CITY           SKY/WX    TMP DP  RH WIND       PRES   REMARKS
ST. JOSEPH     CLOUDY    40  28  62 CALM      30.03R                  
6HR MIN TEMP:  37; 6HR MAX TEMP:  45;                                

MOSBY          CLOUDY    43  32  65 NW3       30.02S                  
HARRISONVILLE  CLOUDY    43  36  75 N3        30.04R                  
WHITEMAN AFB   CLOUDY    42  36  78 N8        29.99R                  
6HR MIN TEMP:  38; 6HR MAX TEMP:  42; 6HR PCP: TRACE;                

CLINTON        CLOUDY    41  41 100 CALM      30.00R FOG              
SEDALIA        CLOUDY    44  37  76 CALM      30.00R                  
6HR MIN TEMP:  40; 6HR MAX TEMP:  44;                                

MARSHALL       CLOUDY    41  34  75 NW5       30.02R                  
CHILLICOTHE      N/A     44  33  65 CALM      30.03R                  
6HR MIN TEMP:  40; 6HR MAX TEMP:  47;                                

MOBERLY        CLOUDY    45  36  70 NW3       30.00R                  
KIRKSVILLE     NOT AVBL                                               

$$


SKY/WX - Weather  TMP - Temperature  DP - Dew Point  RH - Humidity
WIND - Wind Direction/Speed PRES - Barometric Pressure VSB - Visibility
WCI - Wind Chill Index E13G22 Wind - East Wind 13 mph/Gusts of 22 mph

Trending Headlines

Trending Entertainment Headlines

Turney Radar Loop

Use the map search tool if you want to place a location marker on the radar map...

Turney Quick Facts

National Two Day Weather Forecast


E-mail the Turney Weather Forecast

Voice your opinion or tell us about page issues...